Home > Weather > Murau > Past weeks

Flag for Austria Weather for the Past 2 Weeks in Murau, Styria, Austria

Now
32 °F

Passing clouds.


Feels Like: 32 °F
Forecast: 16 / 43 °F
Wind: 1 mph from North

Location: Zeltweg

Current Time: Feb 6, 2016 at 12:07:51 AM

Latest Report: Feb 5, 2016 at 9:50 PM


Visibility: 12 mi

Pressure: 30.33 "Hg (27.28 "Hg at 848m altitude)

Humidity: 93%

Dew point: 30 °F

Location of MurauLocation

Historic Weather in Murau — Graph

°F

Murau Temperature Yesterday

Maximum temperature yesterday: 43 °F (at 2:50 PM)
Minimum temperature yesterday: 30 °F (at 4:50 AM)
Average temperature yesterday: 35 °F

High & Low Weather Summary for the Past Weeks

 TemperatureHumidityPressure
High57 °F (Feb 1, 1:50 PM)100% (Jan 23, 7:20 AM)30.51 "Hg (Jan 23, 7:20 AM)
Low7 °F (Jan 22, 6:20 AM)45% (Feb 4, 11:20 AM)29.86 "Hg (Jan 31, 3:50 AM)
Average33 °F81%30.26 "Hg
* Reported Jan 21 9:50 PM — Feb 5 9:50 PM, Murau, Weather by CustomWeather, © 2016

Note: Actual official high and low records may vary slightly from our data, if they occured in-between our weather recording intervals... More about our weather records

Advertising

Murau Weather History for the Previous 24 Hours

 ConditionsComfort  
Time TempWeatherWind HumidityBarometerVisibility
9:50 PM
Fri, Feb 5
32 °FPassing clouds.1 mph93%30.33 "Hg12 mi
8:50 PM34 °FPassing clouds.1 mph87%30.33 "Hg12 mi
7:50 PM32 °FPassing clouds.1 mph93%30.33 "Hg12 mi
6:50 PM32 °FPassing clouds.2 mph93%30.33 "Hg12 mi
5:50 PM34 °FPassing clouds.1 mph87%30.30 "Hg19 mi
4:50 PM39 °FPassing clouds.2 mph70%30.27 "Hg25 mi
4:20 PM39 °FScattered clouds.3 mph75%30.27 "Hg25 mi
3:50 PM41 °FScattered clouds.7 mph70%30.27 "Hg25 mi
3:20 PM41 °FScattered clouds.6 mph70%30.27 "Hg25 mi
2:50 PM43 °FScattered clouds.6 mph61%30.27 "Hg25 mi
2:20 PM39 °FScattered clouds.2 mph70%30.27 "Hg19 mi
1:50 PM39 °FScattered clouds.6 mph70%30.27 "Hg19 mi
1:20 PM39 °FBroken clouds.5 mph70%30.27 "Hg19 mi
12:50 PM37 °FBroken clouds.2 mph70%30.27 "Hg19 mi
12:20 PM36 °FPartly sunny.6 mph87%30.27 "Hg19 mi
11:50 AM37 °FPartly sunny.1 mph75%30.27 "Hg19 mi
11:20 AM36 °FPartly sunny.7 mph81%30.27 "Hg12 mi
10:50 AM36 °FPartly sunny.7 mph81%30.27 "Hg9 mi
10:20 AM34 °FPartly sunny.5 mph87%30.27 "Hg9 mi
9:50 AM32 °FBroken clouds.3 mph93%30.27 "Hg5 mi
9:20 AM32 °FBroken clouds.3 mph93%30.27 "Hg4 mi
8:50 AM32 °FLight snow. Ice fog.3 mph87%30.27 "Hg2 mi
8:20 AM30 °FLight snow. Ice fog.3 mph93%30.27 "Hg2 mi
7:50 AM30 °FLight snow. Ice fog.3 mph100%30.24 "Hg2 mi
7:20 AM30 °FSnow. Ice fog.1 mph100%30.24 "Hg1 mi
6:50 AM30 °FLight snow. Ice fog.3 mph100%30.21 "Hg2 mi
5:50 AM30 °FSnow. Ice fog.1 mph100%30.18 "Hg1 mi
4:50 AM30 °FLight snow. Ice fog.3 mph100%30.15 "Hg1 mi
Weather by CustomWeather, © 2016

See weather overviewHow to use our weather pages